Wind_Speed
27 28 28 27 26 25 23 22 20 19 18 18 19 21 23 27 30 34 37 38 38 36 35 33 32 31 31 31 32 34 36 38 40 44 49 53 57 60 62 63 64 64 63 63 62 60 59 59 59 59 59 58 57 56 56 56 56 56 55 55 54 54 53 52 52 52 52 51 51 51 50 50 49 48 47 46 45 44 44 43 43 43 44 44 44 44
26 27 28 28 28 27 27 26 25 23 22 20 19 19 19 19 21 23 26 30 33 34 36 37 37 37 37 36 36 36 37 39 42 44 46 48 50 53 56 61 64 66 66 66 64 63 62 61 61 61 61 61 60 59 58 57 57 57 57 56 56 55 54 53 53 53 53 53 53 53 52 52 51 50 50 49 47 46 45 44 44 44 45 46 46 46
22 24 25 26 27 27 28 28 28 27 26 25 23 22 21 20 20 20 21 22 24 26 28 30 33 35 38 39 41 41 42 44 46 48 49 49 49 49 50 54 59 64 68 69 68 66 65 64 64 63 63 63 62 62 61 60 59 59 59 59 58 57 56 55 54 54 54 54 53 53 53 53 52 52 52 51 50 48 46 44 44 45 46 47 47 47
18 19 20 22 24 26 27 28 28 29 29 28 27 26 25 24 23 22 22 22 23 23 24 25 26 28 31 34 37 39 42 44 47 49 51 52 52 51 49 50 54 59 66 69 71 70 68 67 66 65 65 65 65 64 64 63 62 61 61 61 60 59 58 57 56 56 56 55 54 54 53 53 53 53 53 53 53 52 49 46 45 46 48 49 49 49
17 17 18 19 20 22 24 25 27 28 29 29 29 29 28 27 26 25 25 24 25 25 25 26 26 26 27 28 30 32 34 37 39 42 45 48 51 52 52 51 52 56 62 68 71 72 71 69 68 67 67 67 66 66 66 65 65 64 63 62 62 61 61 60 59 58 58 57 56 55 54 54 53 53 54 55 55 55 52 49 48 48 49 50 51 51
20 19 18 18 19 19 20 22 24 26 27 28 29 29 29 29 29 28 27 27 27 27 27 27 27 28 28 28 28 29 29 31 32 34 37 40 44 49 52 54 54 56 60 65 69 72 72 71 70 70 69 69 69 68 68 67 66 66 65 64 63 63 63 62 62 61 60 59 58 57 56 55 54 54 54 55 56 57 55 53 51 49 49 51 52 52
25 24 23 22 21 20 20 21 22 24 25 26 27 28 29 30 30 30 30 29 29 28 28 29 29 29 30 30 30 30 30 30 30 30 31 33 37 41 46 51 55 58 60 63 66 69 71 71 71 71 72 72 71 71 70 69 68 67 66 65 64 64 64 63 63 63 62 62 61 59 58 57 56 55 55 56 57 57 57 56 54 51 50 50 51 52
30 29 28 27 26 24 23 22 23 23 24 25 26 27 28 29 30 30 31 31 30 30 30 30 30 31 31 31 32 32 32 31 31 31 31 31 32 34 38 42 48 53 58 61 64 66 68 70 71 72 73 74 74 74 73 72 71 69 67 65 64 62 62 61 61 62 62 63 63 62 61 60 59 58 58 57 58 58 59 58 57 54 52 51 51 51
33 33 32 32 31 30 28 27 26 25 25 25 26 26 27 27 28 29 30 31 32 32 32 32 32 32 32 33 33 33 34 34 33 33 33 32 32 32 33 35 39 43 49 54 59 63 66 68 70 71 72 74 74 75 74 74 73 72 70 67 64 62 59 57 56 57 59 61 63 63 62 62 61 61 60 59 59 59 59 60 59 57 55 53 52 52
36 36 35 35 35 34 33 32 31 30 29 28 28 28 27 28 28 29 29 30 31 32 33 33 34 34 34 34 34 34 35 35 35 35 35 35 34 33 33 33 34 36 39 44 50 55 60 64 67 69 70 71 71 71 72 72 73 74 73 72 69 65 61 57 54 53 54 57 59 61 61 61 61 61 60 59 58 58 58 59 59 59 58 56 54 54
39 39 38 38 37 37 37 36 35 34 33 33 32 31 31 30 30 29 29 30 31 32 33 34 35 35 35 35 35 35 36 36 36 37 37 37 37 36 35 34 34 34 35 37 41 45 50 56 60 63 65 66 66 66 67 67 69 71 73 74 74 73 69 64 59 55 54 54 55 56 57 58 58 59 58 57 56 56 56 57 57 58 59 58 58 57
40 41 41 40 40 40 40 39 39 38 37 37 36 35 35 34 33 32 32 31 31 31 33 34 35 36 36 36 36 37 37 37 38 38 38 38 38 38 38 37 36 35 35 35 36 38 41 46 50 54 57 60 61 62 62 63 64 65 68 70 74 76 77 75 71 67 62 59 57 55 55 55 55 56 56 56 55 54 54 54 55 56 58 58 59 59
42 43 43 43 43 42 42 42 41 41 40 40 39 38 38 37 36 35 35 34 33 33 33 34 35 36 36 37 37 38 38 39 39 39 39 39 40 40 40 39 39 38 37 36 36 36 37 39 42 45 48 52 54 57 58 59 60 61 62 65 68 72 75 79 80 79 76 71 66 61 57 55 54 55 56 56 56 56 55 53 53 54 56 57 58 59
45 45 45 45 45 45 45 44 44 43 43 43 42 42 41 40 39 39 39 38 37 36 35 35 36 36 36 37 38 39 39 40 40 40 40 40 41 41 41 41 41 40 40 39 38 37 37 37 38 39 41 44 46 49 52 54 56 57 58 59 61 64 68 72 77 80 81 80 77 72 66 61 58 57 58 59 59 59 58 56 55 55 56 57 58 60
47 47 48 48 48 47 47 47 47 46 46 46 45 45 44 43 43 42 42 41 40 39 38 38 37 37 37 37 38 39 40 40 41 41 41 41 41 42 42 42 42 42 42 41 40 39 38 38 38 38 38 39 41 43 45 47 49 51 53 54 55 57 59 63 67 72 76 78 79 78 74 69 65 62 62 63 63 63 62 60 58 57 57 58 60 62
50 50 51 51 51 50 50 49 49 49 49 49 48 47 47 46 46 45 45 44 43 42 41 41 40 40 39 38 39 39 40 41 42 42 42 42 42 42 43 43 44 43 43 42 42 41 40 40 39 39 38 38 39 39 41 42 44 46 47 48 49 50 52 54 57 61 65 70 73 75 75 73 71 69 67 67 67 67 66 65 62 59 58 58 60 63
54 54 54 54 54 54 53 53 52 52 52 51 51 51 50 49 48 48 47 47 46 45 44 44 44 42 41 40 39 40 41 42 43 43 43 43 43 43 43 44 44 44 44 44 43 43 42 42 41 41 40 40 39 39 39 40 41 42 43 44 45 46 48 49 51 53 56 60 65 69 72 73 74 73 72 70 69 69 69 68 65 62 59 59 60 62
57 57 57 57 57 57 57 56 56 55 55 54 53 53 52 52 51 50 49 49 48 48 47 47 46 45 44 42 41 41 42 42 43 44 44 44 44 43 44 44 45 45 45 44 44 44 44 43 43 43 42 41 41 40 40 39 39 40 40 41 42 43 45 46 48 50 52 55 58 63 67 71 74 76 76 74 71 70 70 69 67 64 61 59 59 60
60 60 60 59 59 59 59 59 58 58 57 55 55 54 53 53 52 52 51 51 50 50 49 49 48 47 47 46 44 43 43 43 45 45 45 45 45 44 44 44 45 46 45 45 44 44 44 45 44 44 44 43 43 42 41 40 40 39 39 39 40 40 41 43 45 47 49 51 54 57 61 66 71 75 77 77 75 73 71 70 68 66 63 61 60 59
61 62 61 61 60 60 60 61 60 60 58 58 57 55 55 55 54 53 53 53 52 52 51 51 50 50 49 48 47 46 45 45 46 47 47 47 46 45 44 45 46 46 46 45 45 45 45 45 45 45 45 45 45 44 43 42 42 41 40 39 39 39 39 40 41 42 44 46 48 51 54 58 63 68 73 76 77 76 74 73 71 69 67 64 62 60
62 63 63 62 61 60 61 61 61 60 59 59 58 57 57 56 55 54 54 54 53 53 53 53 52 52 51 50 49 48 48 47 47 48 49 48 47 46 46 46 46 47 46 46 45 45 45 46 46 46 46 46 46 46 45 45 44 43 42 41 41 40 39 39 39 39 40 40 42 43 46 49 53 57 63 68 73 76 77 76 75 73 71 70 68 66
61 63 64 63 62 61 61 60 60 60 59 59 59 58 58 56 55 54 54 54 54 54 54 54 54 54 52 51 51 50 50 49 49 50 50 49 49 48 47 47 47 48 48 47 46 46 46 46 47 47 47 47 47 47 47 47 46 45 45 44 43 42 42 41 40 40 39 39 39 39 40 42 44 47 51 56 62 68 72 75 76 76 76 75 74 73
57 60 62 62 62 62 61 60 59 59 59 59 59 59 58 57 55 55 55 54 54 54 55 55 55 55 53 53 53 52 51 50 51 51 51 51 51 50 48 48 48 49 49 48 47 46 47 47 47 47 47 48 48 48 48 48 48 47 47 46 45 45 44 44 43 42 42 41 40 39 39 39 40 41 43 46 50 55 60 65 69 72 74 75 75 75
52 55 57 60 61 62 61 60 59 58 58 58 58 58 58 57 56 56 55 55 55 55 56 56 56 56 55 55 54 53 52 51 52 52 52 53 53 52 50 49 49 50 50 49 48 47 47 48 48 48 48 48 48 49 49 49 49 49 49 48 47 47 46 46 45 45 44 43 43 42 41 40 40 40 40 41 43 45 48 52 56 60 63 65 67 68
48 50 53 55 58 60 61 60 60 59 58 58 58 58 57 57 57 56 56 55 55 55 56 56 56 56 56 56 54 53 53 52 52 52 53 54 54 54 52 51 51 51 51 50 49 48 48 49 49 48 48 48 48 49 49 50 50 50 50 50 49 49 48 48 47 47 46 46 45 44 43 43 42 41 41 40 41 41 42 44 46 48 50 53 55 57
46 47 49 51 53 56 58 59 59 59 58 58 57 57 57 56 56 56 56 56 55 55 54 54 55 56 56 55 54 53 53 52 52 52 53 54 55 55 54 53 53 53 53 52 51 50 50 50 49 49 48 48 48 48 49 50 50 51 51 51 51 50 50 49 49 48 48 47 47 46 46 45 44 44 43 43 42 42 42 42 42 43 44 46 47 49
45 46 47 48 50 52 54 57 58 59 59 58 57 56 55 55 55 56 56 56 55 53 52 53 54 55 55 55 54 54 53 52 51 52 53 54 55 55 55 54 54 54 54 53 52 52 52 51 51 50 49 48 48 48 49 49 50 51 51 52 52 51 51 51 50 50 49 49 48 48 47 47 46 46 45 45 44 44 43 43 43 43 43 44 45 46
44 45 46 48 49 50 52 54 56 58 59 59 58 57 55 54 54 54 55 55 53 51 51 53 54 54 54 54 54 54 53 51 51 51 52 53 54 55 56 55 54 54 54 55 54 54 53 53 52 51 50 49 49 48 49 49 50 50 51 52 52 52 52 52 51 51 50 50 49 49 48 48 47 47 47 46 46 46 45 45 45 44 44 44 45 45
44 45 46 47 48 49 51 53 55 57 58 59 59 58 57 55 54 53 54 53 51 50 52 54 54 54 53 54 54 54 53 52 51 51 51 51 53 55 56 55 54 54 55 56 56 55 54 54 53 52 51 50 50 49 49 49 49 50 51 51 52 52 52 52 52 52 51 51 51 50 49 49 48 48 47 47 47 46 46 46 46 45 45 45 45 45
44 45 46 46 47 48 50 51 53 55 57 58 59 59 58 57 55 54 53 51 49 50 53 54 53 53 52 53 54 54 54 53 52 50 49 49 52 54 55 54 54 54 55 55 56 56 56 56 55 53 52 51 51 50 50 49 49 50 50 51 51 52 52 52 52 52 52 52 51 51 50 50 49 49 48 47 47 46 46 46 46 45 45 45 45 45
44 45 46 46 47 48 49 50 51 53 55 57 58 59 59 58 57 55 53 51 50 51 52 52 51 51 51 52 52 54 55 53 51 48 46 47 51 53 53 53 53 54 55 55 55 56 57 57 56 55 53 52 52 51 50 50 50 50 50 50 51 51 51 51 51 51 52 52 52 51 51 51 50 49 48 48 47 46 46 46 45 45 45 45 45 45
45 45 46 47 47 48 48 49 50 52 53 55 56 57 58 58 57 56 54 52 51 51 51 51 50 50 51 51 52 53 54 52 49 45 44 46 49 52 51 51 52 53 54 54 55 56 57 58 57 56 54 53 52 52 51 50 50 50 50 50 50 50 51 51 51 51 51 51 51 51 51 51 51 50 49 48 47 46 46 45 45 44 44 44 44 44
45 45 46 47 47 48 48 49 50 50 52 53 54 56 57 57 57 56 55 53 52 51 51 50 50 50 50 51 52 52 52 50 47 45 43 44 46 49 49 49 50 52 53 53 54 56 57 58 58 57 56 55 53 52 51 50 50 50 50 50 50 50 50 50 50 50 50 50 50 50 51 51 51 50 50 49 48 47 46 45 44 44 44 44 44 44
45 46 46 47 47 48 48 49 49 50 51 52 53 54 55 56 56 56 55 53 52 51 50 50 50 50 50 50 51 51 51 49 47 44 42 42 44 46 47 47 48 50 51 52 53 55 56 57 57 57 57 56 55 53 51 50 50 50 50 50 50 49 49 49 49 49 49 49 49 49 50 50 50 50 50 49 49 48 47 46 45 44 43 43 43 43
46 46 46 47 47 47 48 49 49 50 50 51 52 53 54 54 55 55 54 53 52 51 50 49 49 49 49 49 49 50 50 48 46 43 40 40 41 43 44 45 46 48 49 50 52 54 55 56 57 56 57 57 56 54 52 51 50 50 50 49 49 49 49 49 48 48 49 48 48 48 49 49 49 49 49 49 48 48 47 46 45 44 44 43 43 42
46 46 47 47 47 47 48 48 48 49 50 50 51 52 53 53 54 54 54 53 52 51 50 49 49 48 48 48 48 48 48 47 44 41 39 39 40 41 42 44 45 45 46 48 50 52 54 56 56 56 56 56 56 55 54 52 51 50 49 49 49 49 48 48 48 48 48 47 47 47 47 47 47 47 48 47 47 47 46 46 45 44 44 43 42 42
46 47 47 46 46 47 47 47 48 48 49 49 50 51 51 52 53 54 54 53 52 51 50 49 49 48 47 47 47 47 47 45 42 40 39 39 39 39 40 42 43 43 44 46 48 50 52 54 56 56 56 56 55 55 54 52 50 49 49 49 48 48 48 48 48 47 47 47 47 46 46 46 46 46 46 45 45 45 44 44 44 43 43 42 42 41
45 45 45 45 45 45 46 46 47 47 48 48 49 49 50 51 52 52 53 53 53 52 51 50 49 48 47 47 46 46 45 43 41 40 38 37 37 38 39 40 41 42 42 44 46 47 49 51 54 55 56 56 55 54 53 52 50 49 49 49 48 47 47 47 47 47 46 46 46 46 45 45 45 44 44 43 43 42 42 42 42 42 42 41 41 41
43 42 42 42 42 42 43 44 45 45 46 46 47 48 48 49 50 51 52 52 53 52 52 51 50 49 48 47 46 45 44 42 41 39 38 36 36 36 38 39 40 41 42 43 44 45 47 49 52 54 55 55 55 54 53 52 51 50 50 48 47 46 46 46 46 46 46 46 45 45 45 44 44 43 42 42 41 41 41 41 41 41 41 41 40 40
41 40 40 39 39 39 40 41 42 42 43 44 45 46 47 48 49 50 51 51 52 52 52 51 50 50 49 48 47 46 45 43 41 39 37 36 35 36 37 38 40 41 41 42 44 45 46 48 50 52 53 54 54 54 53 52 51 50 49 47 46 45 46 45 45 45 45 45 45 44 44 44 43 42 42 41 41 41 40 40 40 40 41 41 41 41
41 41 40 39 38 37 38 38 38 39 40 41 42 44 45 46 47 48 49 49 50 51 51 51 50 49 49 49 48 47 45 43 40 38 36 34 34 35 36 37 39 40 41 43 44 45 46 47 48 50 51 52 53 54 53 52 51 50 48 47 46 46 45 44 43 44 44 44 44 44 43 43 42 42 41 41 41 41 41 40 40 41 41 42 42 43
42 42 41 40 39 38 37 37 37 37 38 39 40 41 42 43 44 45 46 47 49 50 50 49 48 48 48 48 48 46 44 41 38 35 33 32 32 33 35 36 38 39 41 42 44 45 46 47 48 48 49 50 51 52 53 53 52 50 48 48 47 47 44 43 43 43 43 43 43 43 42 42 41 41 41 41 41 41 41 41 41 41 42 43 44 44
42 42 41 41 40 39 38 37 37 37 36 37 37 38 39 40 41 42 44 46 47 49 48 47 46 45 44 44 45 45 43 41 37 34 32 31 31 32 33 35 36 38 39 41 42 44 45 46 46 47 48 48 49 50 52 52 52 50 49 48 47 45 43 43 43 43 42 42 42 42 41 41 41 41 41 41 41 41 42 42 42 42 43 44 44 46
39 39 39 39 39 38 38 38 38 37 37 36 36 36 37 38 39 40 42 44 46 47 46 45 43 41 39 40 42 43 43 42 39 36 34 32 31 31 32 34 35 37 38 40 41 42 43 44 45 46 47 46 47 48 50 51 51 50 49 48 46 45 44 44 43 41 40 41 41 41 41 41 41 41 41 41 42 42 42 43 43 43 44 44 45 46
36 36 36 36 35 35 36 37 38 39 39 38 37 36 36 36 37 39 40 42 43 44 44 42 39 36 34 37 40 43 44 44 42 39 37 34 32 31 32 33 34 35 37 38 40 41 41 41 42 44 44 44 44 46 48 49 50 50 49 48 46 45 45 45 42 40 39 40 41 41 40 40 40 40 41 42 43 43 43 43 44 44 44 45 45 46
33 33 33 33 33 33 34 35 36 37 38 39 38 37 36 36 37 38 39 40 41 42 42 41 39 37 36 37 39 42 44 45 44 42 39 36 34 32 31 32 32 33 35 36 38 39 39 40 40 40 40 41 42 44 46 47 48 49 49 47 45 44 44 43 42 40 40 40 40 40 40 40 40 40 41 42 43 43 44 44 44 44 45 45 46 46
31 32 32 32 32 32 33 33 34 35 36 37 37 37 36 36 36 36 37 38 39 40 40 40 40 40 41 42 42 43 45 46 45 42 39 36 34 33 31 31 31 31 32 33 34 36 37 38 38 38 37 38 40 42 44 46 47 48 48 47 45 43 43 42 41 40 40 39 39 39 40 39 39 40 42 42 43 43 44 44 44 45 45 45 45 46
30 30 30 30 31 31 32 32 33 34 35 35 36 35 35 34 34 35 36 36 37 38 39 39 40 41 42 43 44 45 45 45 44 41 38 36 35 34 33 32 31 31 31 31 33 34 36 36 36 36 36 37 39 41 43 44 45 46 47 46 44 43 42 42 41 40 39 38 39 39 39 39 39 40 42 42 42 43 43 44 44 45 45 45 45 45
29 29 29 29 30 31 31 31 32 32 33 34 34 34 34 33 33 33 34 35 36 37 38 39 40 40 41 43 43 44 44 43 42 40 38 36 35 34 34 34 33 33 33 33 34 35 36 36 35 35 36 36 37 39 41 42 43 45 46 45 44 43 42 41 40 38 38 38 38 39 39 39 39 40 41 42 42 43 43 44 44 44 44 44 44 44
29 29 29 29 29 30 30 30 30 31 32 32 33 33 33 33 33 33 33 33 34 35 37 38 39 39 41 41 42 42 42 41 40 39 38 36 35 34 34 35 35 35 35 35 36 36 36 36 35 35 35 35 36 37 39 40 42 43 44 45 44 44 42 40 38 37 37 37 37 38 38 38 39 40 41 41 42 43 43 43 43 43 43 43 43 43
29 29 29 29 29 29 29 29 29 29 30 31 31 32 33 33 33 32 32 33 33 34 35 36 37 38 39 40 40 40 40 40 39 38 38 36 35 34 35 35 35 35 35 36 37 37 37 36 35 35 35 34 35 36 37 38 39 40 41 43 44 43 41 39 38 36 35 36 36 37 37 38 38 39 40 41 42 43 42 42 42 42 42 42 42 42
Wind_Direction
296 292 290 288 286 284 281 277 271 265 258 252 248 246 245 245 245 243 241 240 238 236 234 231 231 233 237 241 245 247 248 249 249 246 243 241 239 238 237 236 234 234 233 233 233 232 232 231 231 232 232 232 232 232 233 233 234 234 234 235 235 236 236 236 236 237 237 237 238 239 239 239 239 239 238 238 238 239 239 240 242 243 244 245 246 247
303 300 297 294 291 288 286 284 282 279 275 272 268 265 263 260 258 255 253 251 250 248 245 242 238 236 235 236 238 242 245 248 249 249 248 246 244 244 243 241 239 238 237 236 235 234 233 232 232 232 232 233 233 233 234 234 234 234 235 235 235 236 236 237 237 237 237 238 238 239 240 241 240 240 239 239 239 239 240 241 243 245 246 246 246 247
306 305 302 300 297 295 292 289 286 284 282 280 278 275 273 272 270 269 268 266 264 261 258 255 250 247 244 242 241 241 243 245 246 247 247 246 246 246 246 244 242 241 239 239 238 237 236 234 233 233 233 233 233 234 234 234 235 235 235 236 236 236 236 237 237 237 237 237 238 239 240 241 242 242 241 240 239 239 239 241 244 246 248 248 248 249
300 300 299 299 299 297 295 293 290 288 286 284 282 280 278 276 275 274 274 274 273 271 269 267 263 259 256 253 250 249 248 248 248 248 248 246 245 244 244 243 242 240 239 239 239 238 237 235 234 233 233 234 234 235 235 235 235 235 236 236 236 236 237 237 237 237 238 238 238 239 240 241 242 242 242 242 241 239 238 239 242 245 248 249 250 250
297 294 292 292 292 292 293 293 292 291 289 287 285 283 281 279 278 276 276 275 274 273 272 271 269 267 265 263 261 259 257 256 255 254 252 249 246 244 242 240 239 238 237 238 238 238 237 236 235 234 233 234 234 235 236 236 236 236 237 237 237 237 238 238 238 238 238 238 238 238 239 240 241 242 242 242 242 240 238 237 239 243 248 249 250 250
299 296 293 290 287 286 287 288 289 289 288 287 286 284 283 281 280 278 277 275 274 274 273 272 271 269 268 266 265 264 264 263 262 261 259 256 252 247 243 240 238 236 235 236 237 238 238 238 237 236 235 234 235 235 236 236 237 237 238 238 239 239 239 239 239 239 239 239 238 238 238 239 240 241 242 243 242 241 239 238 239 242 246 249 250 250
298 297 295 293 290 287 285 283 282 282 282 283 283 283 283 282 281 279 277 275 274 273 273 272 271 270 269 268 266 265 265 264 265 265 264 263 259 255 249 245 241 238 236 236 237 238 239 240 240 239 238 237 236 236 236 237 237 238 239 239 240 241 241 241 241 240 240 239 239 239 239 239 240 241 242 243 243 242 241 240 239 241 245 249 250 249
298 296 295 294 293 291 288 284 282 280 278 277 277 277 278 279 279 278 278 276 275 273 272 271 270 269 269 268 267 266 265 264 264 264 265 265 264 262 258 253 248 244 241 239 238 239 239 240 241 241 241 241 240 239 238 238 238 238 238 239 240 240 240 240 240 240 240 240 239 239 239 240 240 241 242 243 244 244 243 242 241 241 244 247 248 247
300 298 296 295 294 292 290 287 284 282 280 278 276 274 273 273 273 274 274 275 274 273 271 270 269 268 268 267 267 266 266 265 264 264 264 265 265 265 264 262 258 253 249 245 243 241 241 241 241 242 243 243 244 243 242 241 240 239 238 238 237 237 236 235 235 236 238 239 240 241 241 242 242 243 244 245 246 247 247 245 243 242 243 245 246 245
302 301 299 298 296 295 292 290 287 285 284 282 280 277 274 272 269 268 268 268 269 270 270 269 268 267 266 266 266 266 265 265 264 264 264 264 264 264 265 265 263 261 257 253 250 247 245 244 243 244 244 245 246 247 247 246 245 244 242 240 238 236 234 233 232 232 234 237 240 241 242 243 244 244 245 246 247 248 249 248 246 244 243 244 245 244
303 302 301 300 298 297 295 293 291 288 287 285 283 281 279 277 274 270 267 264 263 264 266 266 266 266 265 264 264 264 264 264 263 263 263 263 263 263 263 264 264 263 262 259 256 253 250 248 247 247 247 248 249 249 250 250 250 249 247 245 243 241 238 236 235 234 235 236 238 240 241 241 242 243 244 245 246 246 247 248 247 246 245 244 244 244
302 301 301 300 299 298 296 295 293 291 289 287 284 282 281 279 278 276 272 268 264 261 260 261 262 263 263 262 261 261 261 261 261 261 261 261 261 262 261 262 262 262 262 261 259 257 255 253 251 250 250 250 251 251 252 252 252 251 250 249 247 246 244 242 241 240 239 239 239 238 237 237 237 239 240 241 242 242 243 245 245 246 245 245 245 245
300 300 300 299 298 298 297 296 295 293 291 289 286 284 282 280 279 278 275 272 269 265 261 259 258 259 259 259 259 259 258 258 258 258 258 259 259 260 260 260 260 260 260 260 260 259 258 257 255 254 253 252 252 252 253 253 253 252 252 251 249 248 247 246 245 245 244 244 242 241 239 237 236 237 238 239 239 240 241 243 244 245 246 246 246 246
299 299 299 298 298 297 297 296 295 294 292 290 288 287 285 283 281 278 276 273 271 269 266 263 260 258 257 257 257 257 257 256 256 256 256 256 256 257 257 258 258 258 258 258 259 259 259 258 258 257 256 255 254 254 254 253 253 253 252 252 251 250 248 248 247 246 246 246 245 244 243 241 240 239 239 239 240 241 242 243 245 246 247 247 246 247
298 298 298 298 297 296 296 295 294 293 292 291 290 289 287 285 282 279 276 274 273 271 270 268 265 261 259 258 257 257 256 256 255 254 253 253 254 254 255 255 256 256 256 256 257 257 258 258 258 258 258 257 257 256 256 255 254 254 253 253 252 251 250 249 248 247 246 246 246 246 245 244 242 242 242 242 242 243 244 245 246 247 248 248 247 247
298 298 298 297 297 296 295 294 293 292 291 291 290 289 287 285 282 280 278 276 274 273 271 269 267 265 262 260 259 258 257 257 255 254 252 252 252 252 253 253 254 254 254 255 255 256 256 256 257 257 257 258 258 258 258 257 257 256 255 255 254 253 252 252 250 249 248 247 246 246 245 244 243 243 243 244 244 245 246 246 246 247 247 247 247 247
297 297 296 296 296 296 295 294 293 292 291 290 289 288 286 284 283 281 280 278 276 273 271 269 268 267 264 262 260 260 259 258 257 255 253 252 251 251 251 252 252 252 252 253 254 254 255 255 255 256 256 257 257 258 258 259 259 258 258 257 256 256 255 254 254 252 251 249 248 246 245 244 242 242 243 243 244 244 245 246 246 246 246 247 247 247
296 296 296 296 295 295 294 294 293 292 290 289 288 286 285 284 283 281 280 278 276 274 272 270 268 267 266 264 261 260 260 259 258 257 255 253 252 251 251 251 252 251 251 251 252 253 253 254 254 254 255 255 255 256 257 258 258 259 259 258 258 257 256 256 255 255 254 253 251 249 247 245 243 243 243 243 243 243 243 244 244 245 245 245 246 247
294 294 295 295 294 294 294 294 292 291 289 287 285 284 283 282 281 280 279 277 276 274 272 271 269 267 266 265 263 261 260 259 259 258 256 254 253 252 252 252 252 251 251 250 251 251 252 253 253 253 253 254 254 254 255 255 256 257 257 258 258 258 257 257 256 256 255 255 254 252 250 248 246 245 244 244 243 242 242 242 242 243 244 244 245 246
293 293 294 293 293 293 293 293 291 290 288 286 285 283 282 281 279 278 277 276 275 274 273 271 270 268 266 264 263 262 261 260 259 258 257 256 254 253 252 253 252 252 251 250 250 250 251 251 252 252 252 253 253 253 253 253 254 254 255 256 256 257 257 257 257 257 257 256 256 255 253 252 250 248 247 245 244 243 242 242 242 243 244 244 245 246
292 292 293 292 292 291 291 291 290 288 287 286 284 283 281 279 278 276 275 274 273 273 272 271 269 268 266 265 263 262 261 261 260 259 258 257 255 254 253 253 253 252 252 251 250 250 250 250 250 251 251 252 252 252 252 252 252 252 253 253 254 255 256 257 257 258 258 258 258 257 256 255 253 251 250 248 247 245 244 244 244 244 245 247 248 249
290 291 291 291 290 290 289 288 287 287 286 284 283 282 280 278 276 275 274 273 272 271 270 269 268 267 266 265 263 262 261 261 260 260 259 258 256 254 253 253 253 253 252 251 251 250 250 250 250 250 250 251 251 251 251 251 251 251 251 252 252 253 254 255 256 257 257 258 259 259 258 257 256 255 253 251 249 248 247 247 247 247 248 250 251 253
287 288 289 289 289 288 287 286 285 285 284 282 281 279 278 277 276 275 273 271 270 269 268 268 267 267 266 265 264 262 261 260 260 260 260 259 257 255 253 253 253 253 252 252 251 250 250 250 249 249 249 250 250 251 251 251 251 251 251 251 251 252 252 253 254 255 256 257 257 258 258 258 258 257 255 254 252 251 250 249 249 250 250 252 253 254
280 282 284 286 286 286 285 284 283 282 281 280 279 278 277 277 276 274 273 271 270 268 268 267 267 266 265 264 263 262 261 260 260 260 260 259 258 256 254 253 253 252 252 251 251 251 250 250 249 249 249 249 250 250 251 251 251 251 251 251 251 251 252 252 253 254 254 255 256 256 256 257 257 257 256 255 254 253 252 251 250 250 251 252 253 254
273 275 277 280 282 283 283 282 281 280 279 278 277 276 276 276 275 274 273 272 271 269 268 267 266 266 265 263 262 262 261 260 260 260 260 259 258 257 255 254 253 252 251 251 251 251 250 250 249 249 248 249 249 250 250 251 251 251 251 251 251 251 252 252 253 253 254 254 254 255 255 255 255 255 255 255 254 254 253 252 251 251 251 251 251 252
268 268 270 272 275 277 278 278 278 277 276 276 276 276 275 275 274 274 273 273 272 271 270 269 267 266 265 264 263 262 261 260 260 259 259 259 258 257 255 254 254 253 252 251 250 250 250 250 249 249 248 248 249 249 250 250 250 251 251 251 251 251 252 252 253 253 253 254 254 254 254 254 254 254 254 254 254 253 253 253 252 252 251 251 251 251
265 264 264 265 267 270 272 273 274 274 274 273 274 274 275 276 275 275 274 273 273 273 273 271 269 267 266 265 264 262 261 260 260 259 258 258 258 257 255 254 254 254 253 252 251 250 250 249 249 249 248 248 248 249 249 250 250 250 250 250 250 251 251 252 252 253 253 253 253 253 253 253 253 253 253 253 253 253 253 253 252 252 252 252 251 251
264 263 262 262 262 264 266 268 269 271 271 271 271 272 273 275 275 275 275 274 275 276 275 273 271 270 268 267 265 263 262 261 260 260 259 258 258 257 255 255 254 254 254 253 252 250 250 249 249 249 248 248 248 248 248 249 249 250 250 250 250 250 250 251 251 252 252 253 253 252 252 252 252 252 252 252 252 252 252 252 252 252 252 252 251 251
264 263 262 261 261 261 262 263 265 267 268 269 270 270 271 273 274 274 274 276 277 277 275 274 273 272 271 269 267 265 263 262 261 261 260 260 258 257 256 255 255 255 255 254 253 251 250 249 249 249 249 248 248 248 248 249 249 249 250 250 250 250 250 250 250 251 251 252 252 252 252 252 251 251 252 252 252 252 252 252 252 252 252 252 251 250
265 264 264 263 262 261 261 262 263 264 266 267 268 269 270 271 272 273 274 276 278 277 275 275 275 275 274 273 271 268 266 263 262 262 263 262 260 258 257 257 255 255 255 255 255 253 250 249 249 249 249 249 248 248 248 249 249 249 249 250 250 249 249 249 250 250 251 251 251 251 251 251 251 251 251 251 251 252 252 252 252 252 252 252 251 250
266 265 265 264 263 262 262 262 262 263 264 265 267 269 270 271 271 272 274 276 276 276 275 276 276 276 276 276 274 272 268 266 265 265 265 263 261 259 259 258 256 254 255 256 256 254 252 250 248 248 248 248 249 249 249 249 249 249 249 249 250 249 249 249 249 249 250 250 250 251 251 250 250 250 250 250 250 251 252 252 252 253 252 252 251 250
267 266 265 264 264 263 263 262 262 262 263 264 266 267 269 270 271 272 274 275 275 275 276 276 276 276 276 276 275 273 271 270 269 269 268 265 262 261 260 259 256 255 255 255 255 254 253 251 249 248 247 247 248 248 249 249 249 249 249 250 250 250 249 249 249 249 249 250 250 250 250 250 250 250 249 249 250 250 251 251 252 252 252 252 251 250
268 267 266 265 265 264 263 263 262 262 263 263 264 266 268 269 271 272 273 274 275 276 276 277 277 276 276 275 274 273 273 273 272 271 269 266 264 263 262 260 258 256 256 255 254 254 253 252 251 249 247 246 246 247 248 248 249 249 250 250 250 250 250 250 249 249 249 249 250 250 250 250 250 250 249 249 249 249 250 250 251 251 251 251 251 250
271 270 268 267 266 265 264 264 263 263 263 263 263 265 266 268 269 271 273 274 275 276 277 277 277 277 276 276 275 274 274 274 273 272 270 268 266 265 264 262 259 258 257 257 255 254 253 252 252 251 249 247 246 246 247 247 248 249 250 250 250 250 250 250 250 249 249 249 249 250 250 250 250 250 250 249 249 249 249 250 250 250 251 251 250 250
274 272 271 270 268 267 266 265 264 264 263 263 263 264 265 266 268 269 271 273 275 276 276 276 277 277 277 277 276 276 275 274 274 273 272 269 268 266 265 263 261 259 258 257 256 255 254 253 252 251 251 249 248 247 246 247 247 248 249 250 250 250 251 250 250 250 249 249 249 249 250 250 250 250 250 250 250 250 250 250 250 250 250 250 250 249
276 275 273 272 271 269 268 267 266 265 264 264 264 264 264 265 266 268 270 271 273 274 275 275 276 276 277 277 277 276 276 275 275 275 273 271 268 266 265 263 262 260 259 258 258 257 256 254 253 251 251 250 249 248 247 247 247 248 249 249 250 250 251 251 250 250 250 249 249 249 250 250 250 250 250 250 250 250 250 250 250 250 251 251 251 250
278 277 275 274 273 271 270 269 268 267 266 265 264 264 264 265 265 266 268 270 271 273 273 274 275 275 275 276 276 276 276 276 277 276 274 271 269 266 264 263 262 260 259 259 258 258 258 257 255 253 251 250 250 250 249 248 248 248 249 249 249 250 250 251 251 251 250 250 250 249 249 249 250 250 250 250 250 250 250 250 250 251 251 251 251 250
280 278 277 276 275 273 272 270 269 268 267 266 265 265 265 265 265 266 267 268 270 271 272 273 273 274 274 274 274 275 275 276 276 275 274 271 268 266 264 263 262 260 259 258 258 258 259 258 258 256 253 251 250 250 250 250 249 248 248 248 249 249 250 251 251 251 251 250 250 249 249 249 249 249 249 249 249 249 249 249 249 249 249 249 249 248
283 281 280 279 277 275 274 272 271 269 268 267 266 265 265 264 264 265 265 267 268 269 270 272 273 273 273 273 273 273 274 274 274 274 273 271 268 266 264 262 261 259 258 257 256 256 257 257 257 257 255 254 252 251 251 251 250 249 248 248 249 249 250 250 251 251 251 250 250 250 249 248 248 247 247 247 247 246 246 246 246 246 246 245 244 243
286 284 283 281 279 278 277 275 274 272 271 269 267 266 265 264 263 263 264 265 266 267 269 270 272 273 273 273 273 273 273 273 273 273 272 270 267 265 263 261 260 258 257 256 255 255 255 256 256 256 256 256 254 253 252 251 250 249 249 249 249 249 249 250 250 250 250 250 250 250 249 248 247 246 246 245 245 245 244 244 243 243 242 241 239 237
286 285 284 282 281 280 279 278 277 275 274 271 269 267 265 264 264 263 263 264 265 266 267 269 271 272 273 273 274 274 274 273 273 272 271 269 266 264 262 261 259 258 257 256 254 253 254 255 255 256 256 256 255 254 253 252 251 250 250 249 248 247 248 249 249 250 250 250 250 250 249 248 247 246 245 244 244 243 242 241 240 240 239 238 236 233
285 285 284 284 283 282 280 279 277 276 274 273 271 269 267 266 265 264 264 264 264 265 266 268 270 272 273 274 274 274 274 273 272 270 268 266 265 263 262 261 260 259 258 257 255 254 254 254 255 255 255 255 255 255 255 253 252 251 250 249 247 247 247 248 248 249 250 250 250 249 248 248 246 245 244 243 242 241 240 239 238 237 236 234 233 232
285 285 286 286 285 284 282 281 279 276 274 273 271 269 268 267 266 265 264 264 263 264 265 267 270 273 275 278 278 278 276 273 270 268 266 264 262 262 261 261 261 260 260 259 258 257 255 255 255 255 255 255 255 255 255 254 253 252 250 249 248 248 247 247 247 247 248 249 249 249 248 247 245 244 243 242 241 240 239 238 237 235 234 232 231 230
286 286 287 287 287 287 287 286 284 282 279 276 273 271 269 268 267 266 264 263 263 263 264 266 268 272 275 278 278 277 275 272 270 268 267 265 262 260 259 260 261 261 262 261 261 260 259 258 257 256 256 255 255 255 255 255 254 253 251 250 249 248 247 245 245 246 247 248 248 248 247 246 244 243 242 241 241 240 239 237 236 235 233 232 231 230
287 287 287 287 287 287 287 287 286 286 284 282 278 275 272 270 268 267 265 264 263 263 264 264 264 264 265 267 268 269 269 269 268 269 269 267 263 260 258 258 259 261 262 262 262 261 262 261 259 258 257 257 256 254 254 255 255 254 252 251 250 248 247 245 245 245 245 246 247 247 246 245 244 242 242 241 240 239 239 238 236 235 233 232 231 230
286 286 287 287 287 286 284 284 284 284 284 283 281 279 276 273 271 268 267 266 265 264 263 262 260 256 252 252 255 259 262 264 266 267 268 267 264 260 256 255 256 258 261 262 263 262 262 262 261 260 259 258 255 254 253 254 255 254 253 252 251 249 247 246 245 244 243 244 245 246 245 244 243 242 241 241 240 239 239 238 237 236 234 233 232 231
284 285 286 286 286 285 285 284 284 283 283 282 282 280 278 275 272 270 268 266 266 265 263 262 260 256 253 250 251 253 257 261 264 266 267 266 263 260 256 253 252 253 257 261 263 263 262 261 261 260 259 257 255 253 252 252 253 253 253 253 252 250 248 247 245 243 242 242 244 245 245 243 242 242 241 241 240 240 239 238 238 237 236 234 233 232
280 281 282 283 283 284 284 284 284 284 284 283 283 282 280 277 274 271 268 267 266 265 264 262 260 258 256 255 255 256 258 262 265 266 267 265 263 260 257 253 250 250 251 255 258 260 261 260 260 259 258 256 254 253 252 252 252 252 252 253 253 251 249 247 245 243 241 241 242 243 243 243 242 241 241 241 241 240 239 239 238 237 237 236 235 234
275 276 276 278 279 280 281 282 283 284 284 284 284 283 282 279 276 273 270 267 265 264 263 262 261 259 259 258 258 259 261 263 265 266 266 265 263 261 258 255 252 250 249 250 252 254 256 257 257 257 257 256 255 254 253 253 252 252 252 252 252 252 250 248 246 243 241 241 241 242 243 242 241 241 241 241 241 241 240 239 239 238 238 237 236 236
272 271 272 273 274 276 277 279 281 283 284 285 285 285 284 282 279 276 272 269 266 264 262 261 261 261 260 260 260 261 262 263 264 265 265 264 263 261 259 257 254 253 252 251 251 252 254 255 255 255 255 255 255 255 255 254 253 252 252 252 252 252 251 249 247 244 241 240 241 242 242 242 241 241 240 241 241 241 241 240 240 239 239 238 238 237
272 271 270 270 271 272 274 275 277 280 282 284 285 285 284 283 281 279 276 273 270 266 264 262 261 261 261 261 261 261 262 262 263 263 264 263 262 261 260 258 256 255 255 254 254 254 255 256 256 255 254 253 253 254 255 255 254 253 252 252 252 252 251 250 247 245 242 240 240 240 241 241 241 241 240 240 241 242 242 241 241 240 240 239 239 238
Height
3015 3015 3015 3015 3015 3015 3015 3015 3015 3015 3015 3016 3016 3017 3018 3019 3020 3021 3022 3023 3023 3023 3024 3024 3026 3028 3029 3030 3031 3032 3033 3033 3034 3035 3036 3038 3039 3040 3041 3042 3043 3044 3045 3046 3047 3049 3050 3051 3052 3053 3054 3055 3057 3058 3060 3062 3063 3064 3066 3067 3068 3070 3071 3072 3073 3075 3076 3078 3079 3080 3081 3082 3084 3084 3086 3087 3088 3089 3090 3091 3092 3093 3094 3095 3096 3097
3014 3014 3014 3014 3014 3014 3014 3014 3014 3014 3014 3014 3014 3015 3016 3016 3017 3018 3019 3020 3020 3021 3021 3022 3022 3023 3024 3025 3027 3028 3029 3030 3031 3032 3033 3034 3035 3037 3038 3039 3039 3040 3041 3043 3044 3045 3046 3048 3049 3050 3051 3052 3054 3055 3056 3058 3059 3060 3062 3063 3064 3066 3067 3068 3070 3071 3073 3074 3076 3077 3078 3079 3080 3081 3082 3083 3084 3086 3087 3088 3089 3090 3091 3092 3093 3094
3015 3014 3014 3013 3013 3013 3013 3013 3013 3012 3012 3013 3013 3013 3014 3014 3015 3016 3016 3017 3018 3018 3019 3019 3020 3021 3021 3022 3023 3024 3025 3026 3027 3028 3029 3029 3031 3032 3034 3035 3036 3037 3038 3039 3040 3041 3043 3044 3045 3047 3048 3049 3050 3051 3053 3054 3055 3057 3058 3059 3060 3062 3063 3064 3066 3067 3069 3070 3071 3073 3074 3076 3077 3079 3079 3080 3081 3082 3083 3084 3085 3087 3088 3089 3090 3090
3015 3015 3014 3014 3013 3012 3012 3011 3011 3011 3011 3011 3011 3011 3012 3012 3013 3013 3014 3015 3015 3016 3016 3017 3017 3018 3019 3019 3020 3020 3021 3022 3023 3024 3024 3025 3026 3027 3029 3030 3032 3033 3034 3035 3036 3037 3039 3040 3041 3043 3044 3045 3046 3048 3049 3050 3051 3053 3054 3055 3056 3058 3059 3060 3062 3063 3064 3065 3067 3069 3070 3072 3074 3076 3077 3077 3078 3079 3079 3080 3082 3083 3084 3086 3087 3087
3015 3015 3014 3014 3013 3013 3012 3011 3010 3010 3010 3009 3009 3010 3010 3010 3010 3011 3012 3013 3013 3014 3014 3014 3015 3015 3016 3016 3017 3018 3018 3019 3019 3020 3021 3022 3022 3023 3024 3025 3027 3029 3030 3031 3032 3033 3034 3036 3037 3039 3040 3041 3043 3044 3045 3046 3047 3049 3050 3051 3052 3054 3055 3056 3057 3059 3060 3061 3063 3064 3066 3068 3070 3071 3073 3073 3074 3075 3075 3076 3078 3079 3080 3082 3083 3084
3014 3014 3014 3013 3013 3012 3012 3011 3010 3009 3009 3009 3008 3008 3008 3008 3009 3009 3010 3010 3011 3012 3012 3013 3013 3013 3014 3014 3014 3015 3015 3016 3016 3017 3018 3018 3019 3020 3020 3021 3023 3024 3026 3027 3028 3029 3030 3031 3033 3034 3036 3037 3039 3039 3041 3042 3043 3044 3046 3047 3048 3049 3051 3052 3054 3055 3056 3057 3059 3060 3061 3063 3065 3067 3068 3069 3070 3071 3071 3072 3074 3075 3076 3078 3079 3080
3013 3012 3012 3012 3012 3012 3012 3011 3010 3009 3009 3008 3008 3007 3007 3007 3007 3007 3007 3008 3009 3009 3010 3011 3011 3011 3011 3011 3012 3012 3013 3013 3014 3014 3014 3015 3015 3016 3017 3018 3019 3020 3021 3023 3024 3025 3026 3028 3029 3030 3032 3033 3034 3035 3036 3038 3039 3040 3042 3043 3044 3046 3047 3048 3049 3050 3052 3053 3054 3056 3057 3059 3060 3062 3063 3065 3066 3066 3067 3068 3070 3071 3073 3074 3075 3076
3010 3010 3010 3010 3010 3010 3010 3010 3009 3009 3008 3007 3007 3007 3006 3006 3005 3005 3005 3005 3006 3007 3008 3008 3009 3009 3009 3009 3009 3010 3010 3010 3011 3011 3011 3012 3012 3013 3014 3014 3015 3016 3017 3019 3020 3021 3023 3024 3025 3026 3028 3029 3030 3031 3032 3034 3035 3036 3038 3039 3041 3042 3043 3044 3045 3046 3047 3049 3050 3051 3053 3054 3055 3056 3058 3060 3061 3062 3063 3064 3066 3067 3068 3070 3072 3072
3007 3007 3008 3008 3008 3008 3008 3008 3007 3007 3006 3006 3005 3005 3005 3005 3004 3004 3004 3004 3004 3004 3005 3005 3006 3007 3007 3007 3007 3007 3008 3008 3008 3008 3009 3009 3009 3009 3010 3011 3011 3012 3013 3014 3016 3017 3018 3019 3021 3022 3023 3024 3026 3027 3028 3029 3031 3032 3033 3035 3036 3038 3039 3040 3041 3042 3043 3044 3045 3047 3048 3049 3051 3052 3053 3054 3056 3058 3059 3060 3062 3063 3064 3066 3067 3068
3003 3004 3004 3004 3005 3005 3005 3005 3005 3005 3004 3004 3004 3003 3003 3003 3003 3003 3003 3003 3002 3002 3002 3003 3003 3004 3004 3005 3005 3005 3005 3005 3005 3006 3006 3006 3006 3007 3007 3007 3008 3009 3009 3010 3011 3013 3014 3015 3016 3017 3019 3020 3021 3023 3024 3025 3027 3028 3029 3030 3032 3033 3034 3034 3035 3037 3038 3039 3041 3042 3044 3045 3046 3048 3049 3050 3052 3053 3055 3056 3057 3059 3060 3061 3063 3064
3000 3000 3000 3001 3001 3002 3002 3002 3002 3002 3002 3002 3001 3001 3000 3000 3000 3000 3001 3001 3001 3001 3000 3000 3000 3000 3001 3002 3002 3002 3003 3003 3003 3003 3003 3003 3004 3004 3004 3004 3005 3005 3006 3006 3007 3008 3009 3010 3012 3013 3014 3015 3017 3018 3019 3020 3022 3023 3024 3026 3027 3028 3029 3029 3030 3031 3033 3034 3036 3038 3039 3041 3042 3044 3045 3046 3048 3049 3051 3052 3053 3054 3056 3057 3059 3059
2997 2997 2997 2997 2998 2998 2998 2998 2999 2999 2999 2999 2998 2998 2998 2997 2997 2997 2997 2998 2998 2999 2998 2998 2998 2998 2998 2999 2999 2999 3000 3000 3000 3000 3000 3001 3001 3001 3001 3001 3002 3002 3003 3003 3004 3004 3005 3006 3007 3008 3009 3011 3012 3013 3014 3015 3016 3018 3019 3020 3021 3023 3024 3025 3025 3026 3028 3029 3031 3033 3034 3036 3038 3039 3040 3042 3043 3045 3047 3049 3050 3051 3052 3053 3054 3055
2994 2994 2994 2994 2994 2995 2995 2995 2995 2995 2995 2995 2995 2995 2995 2994 2994 2994 2994 2994 2994 2995 2995 2994 2994 2995 2995 2995 2995 2996 2996 2997 2997 2998 2998 2998 2998 2998 2998 2999 2999 2999 3000 3000 3001 3001 3002 3002 3003 3004 3005 3006 3007 3008 3009 3010 3011 3012 3013 3014 3015 3016 3018 3019 3020 3021 3023 3024 3026 3028 3029 3031 3033 3034 3036 3037 3039 3040 3042 3044 3045 3047 3048 3049 3050 3051
2990 2990 2991 2991 2991 2991 2992 2992 2992 2992 2992 2992 2991 2991 2991 2991 2991 2991 2990 2990 2990 2991 2991 2991 2991 2991 2992 2992 2992 2992 2992 2993 2993 2994 2995 2995 2995 2995 2995 2995 2996 2996 2997 2997 2998 2998 2999 2999 2999 3000 3001 3002 3003 3004 3004 3005 3006 3007 3008 3008 3009 3010 3011 3013 3014 3015 3017 3019 3021 3023 3024 3026 3028 3029 3031 3033 3034 3035 3037 3038 3040 3042 3044 3045 3046 3047
2985 2986 2986 2986 2987 2988 2988 2988 2988 2988 2988 2988 2988 2988 2987 2987 2987 2987 2986 2986 2987 2987 2987 2987 2987 2987 2988 2989 2988 2988 2988 2989 2989 2989 2990 2991 2991 2991 2992 2992 2992 2993 2994 2994 2994 2995 2995 2996 2996 2996 2997 2998 2999 2999 3000 3001 3001 3002 3003 3003 3004 3005 3006 3007 3008 3009 3011 3013 3015 3017 3019 3021 3023 3024 3026 3028 3029 3031 3032 3033 3034 3036 3039 3041 3042 3043
2981 2981 2981 2981 2982 2983 2984 2984 2984 2984 2984 2984 2984 2984 2984 2983 2983 2983 2983 2983 2983 2983 2984 2983 2983 2983 2984 2985 2985 2984 2984 2984 2984 2985 2985 2986 2987 2988 2988 2988 2988 2989 2990 2990 2991 2991 2992 2992 2993 2993 2994 2994 2995 2995 2996 2996 2997 2998 2998 2999 2999 3000 3001 3002 3003 3004 3005 3007 3009 3011 3013 3015 3017 3019 3021 3022 3024 3026 3027 3029 3030 3031 3033 3035 3037 3038
2975 2976 2976 2976 2976 2977 2978 2979 2979 2979 2979 2979 2979 2979 2979 2979 2978 2978 2979 2978 2978 2979 2979 2979 2978 2979 2979 2981 2982 2981 2980 2980 2979 2980 2981 2982 2983 2984 2984 2984 2984 2984 2986 2987 2987 2988 2988 2989 2989 2989 2990 2990 2991 2991 2992 2992 2993 2994 2994 2994 2995 2995 2996 2997 2998 2999 3000 3002 3003 3005 3007 3009 3011 3013 3014 3016 3018 3020 3022 3023 3025 3026 3028 3030 3031 3032
2970 2970 2970 2970 2971 2972 2972 2973 2974 2974 2974 2974 2974 2974 2974 2974 2974 2974 2974 2974 2974 2974 2974 2974 2974 2974 2975 2976 2977 2978 2977 2976 2975 2975 2976 2977 2978 2979 2980 2980 2980 2980 2981 2983 2984 2984 2984 2985 2985 2986 2986 2987 2987 2988 2988 2989 2989 2989 2990 2990 2991 2992 2992 2993 2994 2995 2996 2997 2999 3000 3001 3003 3005 3007 3008 3010 3012 3014 3016 3018 3019 3021 3022 3024 3025 3027
2965 2965 2965 2965 2965 2965 2966 2967 2967 2967 2968 2968 2969 2969 2969 2969 2969 2969 2969 2969 2969 2969 2969 2969 2969 2970 2970 2971 2972 2973 2973 2972 2971 2970 2971 2972 2973 2974 2976 2976 2975 2976 2977 2979 2979 2980 2980 2981 2981 2982 2982 2983 2984 2984 2984 2985 2985 2986 2986 2987 2987 2988 2989 2989 2990 2991 2992 2993 2994 2995 2996 2998 2999 3001 3002 3004 3006 3008 3009 3011 3013 3015 3016 3018 3019 3021
2960 2960 2960 2960 2959 2960 2961 2961 2961 2961 2961 2961 2962 2963 2964 2964 2964 2964 2964 2964 2964 2964 2964 2964 2964 2965 2965 2966 2967 2968 2969 2968 2967 2966 2966 2967 2968 2970 2972 2971 2971 2971 2972 2974 2975 2976 2976 2976 2977 2978 2978 2979 2979 2980 2980 2981 2982 2982 2983 2983 2984 2984 2985 2985 2986 2987 2988 2988 2989 2990 2991 2992 2994 2995 2996 2998 3000 3002 3004 3005 3007 3009 3010 3012 3014 3015
2955 2955 2955 2954 2954 2954 2955 2955 2955 2955 2955 2955 2955 2956 2957 2957 2958 2959 2959 2958 2958 2958 2959 2959 2959 2959 2960 2961 2962 2963 2963 2963 2962 2961 2961 2962 2964 2966 2967 2967 2967 2967 2968 2969 2971 2972 2972 2972 2973 2974 2974 2975 2975 2976 2976 2977 2978 2978 2979 2979 2980 2980 2981 2982 2983 2983 2984 2984 2985 2986 2986 2987 2988 2989 2991 2992 2994 2996 2998 2999 3001 3003 3004 3006 3008 3009
2950 2950 2949 2949 2949 2949 2949 2949 2949 2950 2950 2949 2949 2949 2949 2949 2951 2952 2952 2953 2953 2953 2953 2953 2953 2953 2955 2956 2957 2958 2958 2959 2958 2957 2956 2957 2959 2961 2963 2963 2962 2962 2963 2964 2966 2967 2968 2968 2969 2969 2970 2971 2971 2971 2972 2973 2973 2974 2974 2975 2976 2977 2977 2978 2979 2979 2980 2981 2981 2982 2982 2983 2984 2985 2986 2987 2989 2990 2992 2994 2995 2997 2999 3000 3002 3004
2947 2946 2945 2944 2944 2943 2942 2943 2944 2945 2944 2944 2944 2943 2942 2943 2944 2945 2945 2946 2947 2947 2946 2946 2947 2948 2950 2951 2952 2952 2953 2954 2953 2952 2951 2952 2953 2955 2958 2958 2958 2958 2958 2960 2961 2963 2964 2964 2964 2965 2966 2967 2967 2967 2968 2968 2969 2969 2970 2971 2972 2973 2974 2974 2975 2976 2976 2977 2978 2978 2979 2979 2980 2981 2982 2983 2984 2985 2987 2989 2990 2992 2994 2995 2997 2998
2943 2943 2942 2941 2939 2938 2937 2937 2938 2939 2939 2939 2938 2938 2937 2938 2938 2938 2938 2939 2940 2940 2940 2940 2941 2943 2945 2945 2945 2946 2948 2949 2949 2948 2947 2947 2947 2949 2952 2954 2954 2953 2953 2955 2957 2958 2959 2959 2960 2961 2962 2963 2963 2963 2963 2964 2964 2965 2966 2966 2967 2968 2969 2970 2971 2972 2973 2974 2974 2975 2975 2976 2977 2978 2978 2979 2980 2981 2982 2984 2985 2987 2989 2990 2991 2993
2939 2939 2938 2937 2936 2934 2933 2932 2932 2933 2933 2933 2933 2933 2933 2933 2932 2932 2932 2933 2934 2934 2934 2934 2936 2937 2938 2939 2940 2941 2943 2944 2944 2944 2943 2942 2942 2944 2947 2949 2949 2948 2949 2950 2953 2954 2954 2954 2955 2956 2957 2958 2959 2959 2959 2959 2960 2960 2961 2962 2963 2964 2965 2966 2967 2968 2969 2969 2970 2971 2972 2973 2974 2974 2975 2976 2977 2978 2979 2979 2981 2982 2984 2985 2986 2987
2934 2934 2933 2933 2932 2931 2929 2928 2928 2928 2928 2928 2928 2928 2927 2927 2927 2926 2927 2928 2928 2928 2928 2928 2929 2930 2931 2933 2934 2937 2938 2939 2939 2939 2939 2937 2937 2938 2941 2943 2944 2943 2944 2945 2948 2949 2949 2949 2950 2952 2953 2954 2954 2954 2955 2955 2955 2956 2956 2957 2958 2959 2960 2961 2962 2963 2964 2965 2966 2967 2968 2969 2970 2971 2972 2973 2974 2974 2975 2976 2977 2978 2979 2980 2981 2983
2929 2929 2928 2928 2928 2927 2926 2925 2924 2923 2923 2923 2923 2923 2923 2922 2921 2921 2922 2922 2922 2922 2922 2923 2923 2924 2925 2927 2929 2930 2931 2933 2934 2934 2934 2932 2932 2933 2935 2937 2938 2938 2939 2940 2942 2943 2944 2944 2945 2947 2949 2949 2950 2950 2950 2951 2951 2951 2952 2953 2954 2955 2956 2957 2958 2959 2960 2961 2962 2964 2964 2966 2967 2968 2969 2969 2970 2971 2972 2973 2974 2975 2976 2977 2977 2978
2924 2924 2924 2924 2923 2923 2922 2921 2920 2919 2919 2918 2919 2919 2919 2918 2917 2917 2917 2916 2917 2917 2918 2918 2918 2918 2919 2921 2923 2924 2925 2928 2929 2929 2928 2928 2928 2929 2930 2931 2933 2934 2934 2934 2935 2937 2939 2939 2940 2942 2944 2944 2945 2946 2946 2946 2947 2947 2948 2949 2949 2950 2952 2953 2954 2955 2956 2957 2958 2959 2961 2962 2963 2964 2965 2966 2967 2968 2969 2969 2970 2971 2972 2973 2973 2974
2919 2919 2919 2919 2919 2919 2918 2917 2916 2915 2914 2914 2914 2914 2914 2914 2914 2913 2912 2912 2913 2914 2914 2913 2912 2912 2913 2914 2916 2917 2919 2923 2924 2924 2923 2924 2924 2924 2924 2925 2927 2929 2929 2928 2929 2931 2934 2934 2935 2937 2939 2940 2941 2941 2942 2942 2943 2943 2943 2944 2945 2946 2947 2949 2949 2950 2952 2953 2954 2955 2956 2958 2959 2960 2961 2962 2963 2964 2965 2966 2967 2967 2968 2969 2969 2970
2915 2914 2914 2914 2914 2914 2914 2913 2913 2912 2911 2910 2909 2909 2909 2909 2910 2909 2909 2908 2909 2910 2909 2907 2907 2908 2909 2909 2910 2911 2914 2917 2918 2919 2919 2920 2919 2918 2918 2920 2923 2924 2923 2923 2923 2925 2927 2929 2930 2932 2934 2935 2936 2937 2937 2938 2938 2939 2939 2939 2941 2942 2943 2944 2945 2946 2947 2948 2949 2951 2952 2953 2955 2956 2957 2958 2959 2960 2961 2962 2963 2964 2964 2965 2966 2966
2910 2910 2910 2910 2910 2910 2910 2909 2909 2908 2907 2906 2905 2905 2904 2904 2905 2905 2905 2905 2906 2905 2904 2903 2903 2904 2904 2905 2905 2905 2906 2909 2912 2914 2915 2917 2914 2912 2913 2916 2917 2918 2918 2918 2919 2919 2920 2922 2924 2927 2929 2930 2931 2932 2933 2933 2934 2934 2934 2935 2936 2937 2939 2939 2940 2942 2943 2944 2945 2946 2947 2949 2950 2952 2953 2954 2956 2957 2957 2958 2959 2960 2960 2961 2962 2963
2906 2906 2906 2906 2905 2905 2905 2905 2905 2904 2904 2903 2902 2901 2900 2900 2900 2901 2901 2901 2901 2901 2900 2899 2899 2900 2900 2901 2901 2900 2900 2903 2906 2909 2911 2912 2909 2907 2908 2911 2913 2913 2913 2914 2914 2914 2914 2915 2918 2921 2924 2925 2926 2927 2928 2929 2929 2929 2930 2931 2932 2933 2934 2935 2936 2937 2938 2939 2940 2942 2943 2944 2945 2947 2949 2950 2952 2953 2954 2954 2955 2956 2957 2957 2958 2959
2902 2902 2901 2901 2901 2901 2901 2901 2901 2900 2900 2899 2899 2898 2897 2897 2896 2896 2897 2897 2897 2896 2896 2895 2895 2895 2896 2896 2896 2895 2896 2898 2901 2904 2906 2906 2904 2902 2903 2906 2908 2908 2908 2908 2909 2909 2909 2909 2911 2914 2917 2919 2920 2921 2923 2924 2925 2925 2925 2926 2928 2929 2929 2931 2932 2933 2934 2935 2936 2937 2939 2939 2941 2942 2944 2945 2947 2949 2950 2951 2952 2952 2953 2954 2955 2956
2897 2897 2897 2897 2896 2896 2896 2896 2896 2896 2896 2896 2895 2894 2894 2893 2893 2893 2893 2893 2893 2892 2892 2891 2891 2891 2891 2891 2891 2891 2892 2894 2897 2899 2900 2900 2899 2898 2898 2901 2903 2903 2903 2903 2904 2904 2904 2904 2906 2908 2910 2912 2914 2916 2918 2920 2920 2921 2921 2922 2923 2924 2925 2926 2928 2929 2929 2931 2932 2933 2934 2935 2936 2938 2939 2941 2942 2944 2945 2947 2948 2949 2950 2951 2952 2953
2892 2892 2892 2892 2892 2892 2892 2892 2892 2892 2892 2891 2891 2891 2890 2889 2889 2889 2889 2889 2889 2888 2888 2888 2887 2887 2887 2887 2887 2887 2888 2890 2892 2894 2895 2896 2895 2894 2894 2896 2897 2898 2898 2898 2899 2899 2899 2899 2901 2903 2904 2905 2908 2911 2913 2915 2916 2916 2917 2918 2919 2920 2920 2922 2923 2924 2925 2927 2928 2929 2930 2931 2932 2934 2935 2936 2938 2939 2940 2942 2943 2944 2945 2947 2948 2949
2887 2887 2887 2887 2887 2887 2887 2887 2887 2887 2887 2887 2887 2887 2886 2886 2885 2885 2884 2884 2884 2884 2884 2884 2883 2883 2883 2883 2883 2883 2884 2885 2887 2889 2891 2892 2891 2890 2890 2891 2892 2893 2894 2894 2894 2895 2895 2894 2895 2897 2899 2900 2902 2904 2907 2909 2911 2913 2914 2914 2915 2915 2916 2918 2919 2920 2921 2923 2924 2925 2926 2927 2928 2929 2930 2932 2933 2935 2936 2937 2939 2940 2941 2942 2944 2945
2882 2882 2882 2882 2882 2882 2882 2882 2882 2882 2882 2882 2882 2882 2882 2882 2881 2881 2880 2880 2880 2880 2880 2879 2879 2879 2879 2879 2879 2879 2880 2881 2883 2885 2886 2887 2886 2886 2886 2886 2887 2888 2890 2890 2890 2891 2891 2890 2890 2891 2894 2895 2897 2899 2901 2904 2907 2909 2909 2909 2910 2911 2913 2914 2915 2916 2917 2918 2920 2921 2922 2924 2924 2925 2927 2928 2929 2931 2932 2933 2934 2935 2936 2938 2939 2941
2877 2877 2877 2877 2878 2878 2877 2877 2877 2877 2877 2877 2877 2878 2878 2878 2877 2877 2876 2876 2876 2875 2875 2875 2875 2875 2876 2876 2876 2876 2877 2878 2879 2880 2882 2882 2882 2882 2882 2882 2883 2884 2886 2886 2886 2887 2888 2887 2887 2887 2888 2889 2892 2894 2896 2899 2902 2904 2904 2904 2906 2908 2909 2910 2910 2912 2913 2914 2915 2917 2919 2920 2921 2922 2923 2924 2926 2927 2928 2929 2930 2931 2933 2934 2935 2937
2872 2872 2872 2873 2873 2873 2872 2872 2872 2872 2872 2873 2873 2873 2873 2873 2873 2873 2872 2872 2871 2871 2871 2871 2871 2871 2871 2872 2872 2873 2874 2874 2875 2876 2877 2878 2878 2879 2879 2879 2879 2879 2881 2881 2882 2883 2884 2884 2883 2883 2883 2884 2886 2889 2892 2894 2896 2898 2899 2900 2902 2904 2906 2906 2906 2908 2909 2910 2912 2913 2914 2916 2917 2919 2919 2921 2922 2923 2924 2925 2927 2928 2929 2931 2932 2933
2868 2868 2868 2868 2868 2868 2867 2867 2867 2867 2867 2867 2867 2867 2868 2868 2868 2868 2868 2867 2867 2867 2867 2867 2867 2866 2867 2867 2868 2869 2870 2871 2872 2873 2874 2874 2874 2874 2875 2875 2875 2875 2876 2877 2878 2878 2879 2879 2879 2879 2880 2880 2882 2884 2886 2889 2891 2893 2894 2897 2899 2900 2901 2901 2902 2904 2905 2906 2908 2909 2910 2912 2913 2915 2916 2917 2919 2920 2921 2922 2923 2924 2926 2927 2928 2929
2864 2863 2863 2863 2864 2864 2864 2863 2863 2863 2863 2863 2863 2862 2863 2863 2863 2863 2863 2863 2863 2863 2863 2863 2863 2862 2862 2863 2864 2864 2866 2867 2868 2869 2869 2870 2871 2871 2871 2871 2871 2871 2872 2873 2873 2873 2874 2874 2875 2875 2877 2878 2878 2879 2880 2883 2885 2888 2890 2893 2894 2895 2895 2897 2899 2900 2901 2902 2904 2905 2906 2908 2909 2911 2912 2914 2915 2916 2918 2919 2920 2921 2922 2923 2924 2925
2860 2859 2859 2859 2859 2859 2859 2859 2859 2859 2859 2859 2858 2858 2858 2858 2858 2858 2859 2859 2859 2859 2859 2859 2859 2859 2858 2858 2859 2860 2861 2863 2864 2865 2866 2866 2867 2867 2867 2868 2868 2868 2868 2869 2869 2869 2869 2870 2871 2871 2873 2874 2875 2875 2876 2877 2880 2883 2885 2888 2889 2890 2892 2894 2896 2897 2897 2898 2899 2901 2903 2904 2906 2907 2909 2910 2912 2913 2914 2915 2916 2917 2918 2919 2920 2921
2856 2855 2855 2855 2855 2855 2855 2855 2855 2855 2855 2855 2854 2854 2854 2854 2854 2855 2855 2854 2854 2854 2854 2855 2855 2855 2854 2854 2854 2855 2857 2859 2860 2861 2862 2863 2863 2864 2864 2864 2864 2864 2864 2865 2865 2865 2865 2866 2867 2868 2869 2870 2871 2872 2872 2873 2874 2877 2881 2883 2884 2886 2889 2891 2891 2892 2894 2894 2896 2897 2899 2900 2902 2903 2905 2907 2908 2909 2910 2911 2912 2913 2914 2915 2916 2918
2853 2852 2852 2851 2851 2850 2850 2850 2850 2850 2850 2850 2850 2850 2850 2851 2851 2851 2850 2850 2850 2850 2851 2851 2852 2853 2853 2852 2851 2851 2852 2853 2855 2857 2858 2859 2860 2860 2861 2861 2861 2861 2861 2861 2861 2861 2861 2862 2864 2864 2865 2867 2868 2869 2868 2869 2870 2872 2875 2878 2880 2883 2884 2885 2886 2889 2891 2891 2892 2893 2895 2896 2898 2899 2901 2903 2904 2905 2906 2908 2909 2909 2910 2912 2913 2914
2850 2849 2849 2848 2848 2848 2848 2847 2847 2846 2846 2846 2846 2846 2846 2847 2847 2847 2846 2846 2846 2846 2847 2848 2850 2852 2852 2852 2851 2851 2850 2849 2850 2853 2854 2854 2856 2857 2858 2858 2858 2858 2858 2858 2858 2858 2858 2859 2860 2860 2862 2863 2864 2865 2866 2866 2867 2868 2870 2873 2876 2878 2879 2880 2883 2886 2888 2888 2888 2889 2891 2893 2894 2896 2897 2898 2899 2901 2902 2904 2905 2906 2907 2908 2909 2910
2847 2846 2846 2845 2845 2844 2844 2844 2844 2843 2843 2842 2841 2842 2842 2843 2843 2843 2843 2842 2842 2843 2843 2844 2845 2846 2846 2847 2848 2848 2847 2846 2847 2849 2850 2851 2851 2852 2854 2854 2855 2856 2856 2855 2855 2854 2855 2855 2856 2857 2858 2859 2860 2861 2862 2863 2864 2864 2866 2869 2871 2874 2875 2877 2879 2882 2884 2884 2884 2886 2887 2889 2890 2892 2893 2894 2895 2896 2898 2899 2901 2902 2903 2904 2905 2907
2844 2844 2843 2842 2842 2841 2841 2840 2840 2840 2839 2838 2838 2838 2839 2839 2839 2839 2839 2839 2839 2839 2839 2840 2841 2841 2840 2840 2841 2842 2842 2842 2843 2845 2846 2847 2848 2849 2849 2850 2851 2852 2853 2853 2852 2852 2852 2852 2853 2854 2855 2856 2856 2856 2858 2859 2860 2861 2862 2864 2867 2869 2871 2873 2875 2878 2879 2880 2881 2882 2883 2885 2887 2888 2889 2889 2891 2893 2894 2896 2897 2898 2899 2900 2902 2903
2841 2841 2840 2840 2839 2839 2838 2838 2837 2837 2836 2835 2835 2835 2835 2835 2835 2835 2835 2835 2835 2835 2836 2836 2836 2837 2837 2837 2838 2839 2839 2839 2840 2841 2842 2843 2844 2845 2846 2846 2847 2848 2849 2850 2850 2849 2849 2849 2849 2850 2851 2852 2852 2852 2853 2855 2857 2858 2859 2861 2863 2865 2867 2869 2871 2874 2876 2877 2878 2879 2879 2881 2883 2884 2885 2886 2888 2889 2890 2892 2893 2894 2895 2897 2898 2899
2839 2838 2837 2837 2836 2836 2835 2835 2834 2834 2833 2832 2832 2832 2831 2832 2832 2832 2831 2831 2832 2832 2832 2832 2832 2832 2833 2833 2834 2835 2836 2836 2836 2837 2838 2839 2840 2841 2842 2843 2843 2844 2844 2845 2845 2846 2845 2845 2846 2847 2848 2848 2849 2849 2850 2852 2854 2855 2856 2858 2859 2861 2863 2865 2868 2870 2872 2874 2874 2875 2876 2878 2879 2880 2881 2883 2884 2885 2886 2888 2889 2890 2892 2893 2894 2896
2836 2835 2835 2834 2834 2833 2833 2832 2832 2831 2830 2829 2829 2829 2828 2828 2828 2828 2828 2828 2828 2828 2828 2828 2828 2829 2829 2829 2830 2831 2832 2833 2833 2834 2834 2836 2837 2838 2838 2839 2839 2840 2841 2841 2841 2841 2841 2841 2842 2843 2844 2845 2847 2847 2848 2849 2850 2852 2854 2854 2856 2857 2859 2862 2864 2867 2869 2870 2871 2872 2873 2874 2875 2877 2878 2879 2880 2881 2883 2884 2886 2887 2888 2890 2891 2892
2833 2832 2832 2831 2831 2830 2830 2829 2829 2828 2828 2827 2826 2826 2825 2825 2825 2825 2825 2824 2824 2824 2824 2825 2825 2825 2825 2826 2827 2828 2829 2829 2829 2830 2831 2832 2834 2834 2835 2835 2836 2837 2838 2838 2838 2838 2838 2838 2838 2839 2840 2842 2844 2845 2845 2846 2847 2849 2851 2852 2853 2854 2856 2858 2861 2863 2865 2867 2868 2869 2869 2871 2872 2873 2874 2876 2877 2878 2879 2881 2883 2884 2885 2886 2888 2889